Regional Weather Roundup
Issued by NWS

Home | Current Version | Previous Version | Graphics & Text | Print | Product List | Glossary On
Versions: 1 2 3 4 5 6 7 8 9 10 11 12 13 14 15 16 17 18 19 20 21 22 23 24 25 26 27 28 29 30 31 32 33 34 35 36 37 38 39 40 41 42 43 44 45 46 47 48 49 50
013
ASUS43 KOAX 180002
RWRNE

WEATHER ROUNDUP FOR NEBRASKA
NATIONAL WEATHER SERVICE OMAHA NE
700 PM CDT THU AUG 17 2017

NOTES: SATELLITE DATA IS BEING USED TO AUGMENT CLOUD COVER ABOVE
       12000 FEET.
       "FAIR" INDICATES FEW OR NO CLOUDS BELOW 12,000 FEET WITH NO
       SIGNIFICANT WEATHER AND/OR OBSTRUCTIONS TO VISIBILITY.


NEZ001>004-019>022-054>056-180100-
NEBRASKA PANHANDLE

CITY           SKY/WX    TMP DP  RH WIND       PRES   REMARKS
SCOTTSBLUFF    SUNNY     89  41  18 CALM      29.95F
6HR MIN TEMP:  81; 6HR MAX TEMP:  91;

ALLIANCE       SUNNY     85  45  24 MISG      29.94F
6HR MIN TEMP:  81; 6HR MAX TEMP:  87;

CHADRON        CLOUDY    82  46  28 NE15      29.89R
6HR MIN TEMP:  82; 6HR MAX TEMP:  91;

GORDON         FAIR      87  46  24 SW10      29.90S
6HR MIN TEMP:  83; 6HR MAX TEMP:  89;

KIMBALL        MOSUNNY   77  48  36 S10       30.05S
SIDNEY         SUNNY     85  44  23 S17       30.02S
6HR MIN TEMP:  75; 6HR MAX TEMP:  90; 6HR PCP: TRACE;

$$

NEZ057>060-069>072-079>082-180100-
SOUTHWEST NEBRASKA

CITY           SKY/WX    TMP DP  RH WIND       PRES   REMARKS
NORTH PLATTE   SUNNY     83  62  49 S10       29.93F
6HR MIN TEMP:  82; 6HR MAX TEMP:  87;

IMPERIAL       TSTM      69  60  73 N14       29.99R
6HR MIN TEMP:  69; 6HR MAX TEMP:  90; 6HR PCP:  0.03;

LEXINGTON      SUNNY     82  61  49 S8        29.96F
MCCOOK         SUNNY     86  60  41 S9        29.96F
6HR MIN TEMP:  83; 6HR MAX TEMP:  89;

OGALLALA       CLOUDY    82  58  43 S13       29.94F
$$

NEZ005>010-023>029-035>040-094-180100-
NORTH CENTRAL NEBRASKA

CITY           SKY/WX    TMP DP  RH WIND       PRES   REMARKS
VALENTINE      SUNNY     91  49  23 S15       29.85F
6HR MIN TEMP:  85; 6HR MAX TEMP:  92;

AINSWORTH      SUNNY     84  59  41 S9        29.89F
BROKEN BOW     SUNNY     85  57  38 S12       29.94F
6HR MIN TEMP:  82; 6HR MAX TEMP:  88;

O`NEILL        SUNNY     83  62  49 S9        29.90S
ORD            SUNNY     83  58  42 S8        29.91F
6HR MIN TEMP:  80; 6HR MAX TEMP:  85;

THEDFORD       SUNNY     87  55  32 SW17      29.92F
$$

NEZ041-046>049-061>064-073>077-083>087-180100-
SOUTH CENTRAL NEBRASKA

CITY           SKY/WX    TMP DP  RH WIND       PRES   REMARKS
GRAND ISLAND   SUNNY     83  63  50 SW8       29.95F
6HR MIN TEMP:  80; 6HR MAX TEMP:  86;

AURORA         SUNNY     80  64  58 SW3       29.95F
HASTINGS       SUNNY     82  60  47 S3        29.97F
6HR MIN TEMP:  79; 6HR MAX TEMP:  84;

HEBRON         SUNNY     84  62  47 S3        29.95F
HOLDREGE       SUNNY     82  60  48 SE5       29.97F
KEARNEY        SUNNY     81  64  56 S8        29.96F
YORK           SUNNY     79  68  69 CALM      29.95S
$$

NEZ011>018-030>034-042>045-180100-
NORTHEAST NEBRASKA

CITY           SKY/WX    TMP DP  RH WIND       PRES   REMARKS
NORFOLK        SUNNY     80  62  54 S5        29.91F
6HR MIN TEMP:  77; 6HR MAX TEMP:  82;

ALBION         SUNNY     83  65  55 S3        29.92F
BLAIR          RAIN      79  63  57 W3        29.92S
COLUMBUS       SUNNY     81  66  60 S5        29.93S
FREMONT        SUNNY     80  64  57 W3        29.92S
TEKAMAH        SUNNY     80  64  58 CALM      29.90F
6HR MIN TEMP:  78; 6HR MAX TEMP:  81;

WAYNE          SUNNY     79  62  56 CALM      29.91F
$$

NEZ050>053-065>068-078-088>093-180100-
SOUTHEAST NEBRASKA

CITY           SKY/WX    TMP DP  RH WIND       PRES   REMARKS
LINCOLN        SUNNY     83  62  49 W7        29.93F
6HR MIN TEMP:  80; 6HR MAX TEMP:  85;

OMAHA EPPLEY   SUNNY     82  59  45 NW7       29.91S
6HR MIN TEMP:  80; 6HR MAX TEMP:  84;

BEATRICE       SUNNY     84  60  44 NW5       29.94F
FALLS CITY     SUNNY     82  61  48 NW3       29.92S
6HR MIN TEMP:  79; 6HR MAX TEMP:  83;

NEBRASKA CITY  SUNNY     80  62  54 W5        29.93F
PLATTSMOUTH    SUNNY     79  62  55 W3        29.92F
$$

NEZ044-045-051>053-067-180100-
OMAHA AREA

CITY           SKY/WX    TMP DP  RH WIND       PRES   REMARKS
OMAHA EPPLEY   SUNNY     82  59  45 NW7       29.91S
6HR MIN TEMP:  80; 6HR MAX TEMP:  84;

BLAIR          RAIN      79  63  57 W3        29.92S
FREMONT        SUNNY     80  64  57 W3        29.92S
OFFUTT AFB     SUNNY     82  59  44 W8        29.90F
PLATTSMOUTH    SUNNY     79  62  55 W3        29.92F
WAHOO          FAIR      80  66  62 W3        29.92F
$$




USA.gov is the U.S. government's official web portal to all federal, state and local government web resources and services.